Home > Weather > Upernavik > Past weeks

Flag for Greenland Past Weather in Upernavik, Greenland — Yesterday and Last 2 Weeks

Now
48 °F

Cool.


Feels Like: 44 °F
Forecast: N/A
Wind: 8 mph from South

Location: Edderfugle Oeer

Current Time: Jul 24, 2016 at 8:35:38 PM

Latest Report: Jul 24, 2016 at 7:00 PM


Visibility: N/A

Pressure: 30.05 "Hg

Humidity: 83%

Dew Point: 43 °F

Location of UpernavikLocation

Past Weather in Upernavik — Graph

°F

Upernavik Temperature Yesterday

Maximum temperature yesterday: 47 °F (at 10:00 PM)
Minimum temperature yesterday: 42 °F (at 6:00 AM)
Average temperature yesterday: 44 °F

High & Low Weather Summary for the Past Weeks

 TemperatureHumidityPressure
High53 °F (Jul 15, 9:00 PM)100% (Jul 12, 3:00 AM)30.18 "Hg (Jul 12, 3:00 AM)
Low37 °F (Jul 12, 6:00 AM)49% (Jul 15, 9:00 PM)29.64 "Hg (Jul 16, 8:00 PM)
Average44 °F86%29.92 "Hg
* Reported Jul 9 7:00 PM — Jul 24 7:00 PM, Upernavik, Weather by CustomWeather, © 2016

Note: Actual official high and low records may vary slightly from our data, if they occured in-between our weather recording intervals... More about our weather records

Advertising

Upernavik Weather History for the Previous 24 Hours

Scroll right to see more
 ConditionsComfort  
Time TempWeatherWind HumidityBarometerVisibility
7:00 PM
Sun, Jul 24
48 °FCool.8 mph83%30.05 "HgN/A
6:00 PM48 °FCool.8 mph81%30.05 "HgN/A
5:00 PM48 °FCool.8 mph77%30.05 "HgN/A
4:00 PM49 °FCool.10 mph64%30.04 "HgN/A
3:00 PM48 °FCool.10 mph68%30.04 "HgN/A
2:00 PM49 °FCool.12 mph68%30.04 "HgN/A
1:00 PM49 °FCool.14 mph63%30.04 "HgN/A
12:00 PM47 °FCool.14 mph74%30.04 "HgN/A
11:00 AM47 °FCool.13 mph70%30.03 "HgN/A
10:00 AM47 °FCool.13 mph67%30.03 "HgN/A
9:00 AM48 °FCool.10 mph64%30.03 "HgN/A
8:00 AM47 °FCool.14 mph70%30.03 "HgN/A
7:00 AM44 °FQuite cool.12 mph80%30.03 "HgN/A
6:00 AM44 °FQuite cool.14 mph79%30.02 "HgN/A
5:00 AM45 °FCool.17 mph76%30.01 "HgN/A
4:00 AM45 °FCool.14 mph76%30.01 "HgN/A
3:00 AM46 °FCool.15 mph75%30.00 "HgN/A
2:00 AM44 °FQuite cool.12 mph79%30.01 "HgN/A
1:00 AM45 °FCool.13 mph76%30.01 "HgN/A
12:00 AM47 °FCool.9 mph69%30.01 "HgN/A
11:00 PM
Sat, Jul 23
46 °FCool.5 mph83%30.02 "HgN/A
10:00 PM47 °FCool.5 mph78%30.02 "HgN/A
9:00 PM47 °FCool.9 mph82%30.02 "HgN/A
8:00 PM46 °FCool.9 mph87%30.03 "HgN/A
Weather by CustomWeather, © 2016

See weather overviewHow to use our weather pages